sat.trackr.live / text

‹ back to catalog

STARLINK-5052

NORAD 53893 · 2022-119H

PAYLOAD ACTIVE UNKNOWN

§ Identity

Operator
Country
US
Launch date
2022-09-24
Launch site
AFETR
Launch vehicle
Mass (kg)
RCS (m²)

Purposes: comms

External: N2YO · Heavens-Above · Gunter

§ Orbital elements

Epoch: 2026-05-24T22:13:45.890112Z

Period
95.44 min
Inclination
53.2133°
Eccentricity
0.0001262
Mean motion
15.08841426 rev/d
Perigee alt
538.9 km
Apogee alt
540.6 km
Semi-major
6,917.9 km
B*
8.3093e-5
RAAN
341.8844°
Arg perigee
82.9180°
Mean anomaly
277.1955°
Rev number
20,319

§ Raw data

STARLINK-50521 53893U 22119H   26144.92622558  .00001035  00000+0  83093-4 0  99942 53893  53.2133 341.8844 0001262  82.9180 277.1955 15.08841426203198

JSON: /api/v1/satellites/53893 · /tle

For live sub-satellite position, see the globe view (requires WebGL).

§ Visibility from observer

Set your observer location to see the next 7 days of passes ≥ 10°. The values pass through the URL so the page stays shareable.

No JS? Fill the form by hand. The geolocation button needs JavaScript.